Weather History for Athens, OH

Change the Weather History Date:

Sunday, February 17, 2013

  Actual Average (KPKB) Record (KPKB)
Temperature  
Mean Temperature 20 °F 35 °F  
Max Temperature 27 °F 45 °F 73 °F (1961)
Min Temperature 12 °F 26 °F -3 °F (1958)
Degree Days  
Heating Degree Days 46 30  
Month to date heating degree days 534  
Since 1 July heating degree days 3479  
Cooling Degree Days 0 0  
Month to date cooling degree days 0  
Year to date cooling degree days 0  
Moisture  
Dew Point 7 °F    
Average Humidity 61    
Maximum Humidity 87    
Minimum Humidity 39    
Precipitation  
Precipitation 0.00 in 0.09 in 0.50 in (1956)
Month to date precipitation 1.61  
Year to date precipitation 4.56  
Sea Level Pressure  
Sea Level Pressure 30.17 in    
Wind  
Wind Speed 8 mph (WNW)    
Max Wind Speed 15 mph    
Max Gust Speed 22 mph    
Visibility 10 miles    
Events Snow    
T = Trace of Precipitation, MM = Missing Value Source: NWS Daily Summary

Daily Weather History Graph

Daily Weather History Graph

Search for Another Location

Airport:

Trip Planner

Search our weather history database for the weather conditions in past years. The results will help you decide how hot, cold, wet, or windy it might be!

Date:

Astronomy

Feb. 17, 2013 Rise Set
Actual Time 7:17 AM EST 6:08 PM EST
Civil Twilight 6:50 AM EST 6:35 PM EST
Nautical Twilight 6:19 AM EST 7:07 PM EST
Astronomical Twilight 5:48 AM EST 7:38 PM EST
Moon 11:13 AM EST (2/17) 12:59 AM EST (2/17)
Length of Visible Light 11h 45m
Length of Day
10h 50m
Waxing Crescent, 49% of the Moon is Illuminated
Feb 17
Waxing Crescent
Feb 17
First Quarter
Feb 25
Full
Mar 4
Last Quarter
Mar 11
New

Hourly Weather History & Observations

Time (EST) Temp. Windchill Dew Point Humidity Pressure Visibility Wind Dir Wind Speed Gust Speed Precip Events Conditions
12:15 AM 20.1 °F 8.1 °F 14.4 °F 78% 30.05 in 3.0 mi WNW 11.5 mph - N/A Snow Light Snow
12:35 AM 19.2 °F 5.3 °F 10.9 °F 70% 30.05 in 10.0 mi WNW 15.0 mph 21.9 mph N/A   Overcast
12:55 AM 18.7 °F 6.3 °F 9.5 °F 67% 30.06 in 10.0 mi WNW 11.5 mph 20.7 mph N/A   Mostly Cloudy
1:15 AM 18.5 °F 5.5 °F 6.8 °F 60% 30.06 in 10.0 mi WNW 12.7 mph 16.1 mph N/A   Overcast
1:35 AM 18.1 °F 7.1 °F 5.0 °F 57% 30.07 in 10.0 mi WNW 9.2 mph - N/A   Overcast
1:55 AM 17.4 °F 7.1 °F 4.5 °F 57% 30.07 in 10.0 mi West 8.1 mph - N/A   Scattered Clouds
2:15 AM 16.7 °F 8.3 °F 4.3 °F 58% 30.07 in 10.0 mi West 5.8 mph - N/A   Clear
2:35 AM 16.7 °F 5.3 °F 3.2 °F 55% 30.07 in 10.0 mi WNW 9.2 mph - N/A   Clear
2:55 AM 16.5 °F 6.0 °F 3.0 °F 55% 30.08 in 10.0 mi WNW 8.1 mph - N/A   Clear
3:15 AM 15.8 °F 7.2 °F 3.0 °F 57% 30.08 in 10.0 mi WNW 5.8 mph - N/A   Clear
3:35 AM 15.6 °F 7.0 °F 3.2 °F 58% 30.08 in 10.0 mi West 5.8 mph - N/A   Clear
3:55 AM 15.4 °F 4.6 °F 3.4 °F 59% 30.08 in 10.0 mi West 8.1 mph - N/A   Clear
4:15 AM 15.1 °F 5.2 °F 3.9 °F 61% 30.09 in 10.0 mi West 6.9 mph - N/A   Clear
4:35 AM 14.9 °F 7.5 °F 4.1 °F 62% 30.09 in 10.0 mi West 4.6 mph - N/A   Clear
4:55 AM 14.4 °F 6.9 °F 4.1 °F 64% 30.09 in 10.0 mi West 4.6 mph - N/A   Clear
5:15 AM 13.8 °F 3.7 °F 4.5 °F 66% 30.10 in 10.0 mi West 6.9 mph - N/A   Clear
5:35 AM 13.6 °F 6.0 °F 4.3 °F 66% 30.10 in 10.0 mi West 4.6 mph - N/A   Clear
5:55 AM 13.5 °F 3.3 °F 4.8 °F 68% 30.11 in 10.0 mi West 6.9 mph - N/A   Clear
6:15 AM 13.1 °F 2.8 °F 5.0 °F 70% 30.11 in 10.0 mi WSW 6.9 mph - N/A   Clear
6:35 AM 13.3 °F 3.0 °F 5.2 °F 70% 30.12 in 10.0 mi West 6.9 mph - N/A   Clear
6:55 AM 13.1 °F 4.0 °F 5.0 °F 70% 30.12 in 10.0 mi West 5.8 mph - N/A   Clear
7:15 AM 12.4 °F 3.1 °F 5.0 °F 72% 30.13 in 10.0 mi West 5.8 mph - N/A   Clear
7:35 AM 13.1 °F 2.8 °F 5.7 °F 72% 30.14 in 10.0 mi West 6.9 mph - N/A   Clear
7:55 AM 14.2 °F 4.1 °F 6.1 °F 70% 30.14 in 10.0 mi West 6.9 mph - N/A   Clear
8:15 AM 15.3 °F 3.5 °F 6.6 °F 69% 30.15 in 10.0 mi West 9.2 mph - N/A   Clear
8:35 AM 16.0 °F 2.9 °F 7.5 °F 69% 30.16 in 10.0 mi West 11.5 mph 17.3 mph N/A   Clear
8:55 AM 16.7 °F 6.2 °F 7.9 °F 68% 30.17 in 10.0 mi WNW 8.1 mph - N/A   Clear
9:15 AM 18.0 °F 5.4 °F 9.0 °F 68% 30.17 in 10.0 mi WNW 11.5 mph - N/A   Clear
9:55 AM 19.8 °F 8.3 °F 9.5 °F 64% 30.18 in 10.0 mi WNW 10.4 mph 18.4 mph N/A   Scattered Clouds
10:15 AM 19.6 °F 8.9 °F 9.0 °F 63% 30.19 in 10.0 mi WNW 9.2 mph 16.1 mph N/A   Scattered Clouds
10:35 AM 21.7 °F 10.8 °F 10.6 °F 62% 30.19 in 10.0 mi WNW 10.4 mph - N/A   Mostly Cloudy
10:55 AM 21.7 °F 11.5 °F 8.8 °F 57% 30.19 in 10.0 mi NW 9.2 mph 20.7 mph N/A   Mostly Cloudy
11:15 AM 21.9 °F 11.0 °F 8.8 °F 57% 30.20 in 10.0 mi West 10.4 mph - N/A   Mostly Cloudy
11:35 AM 21.9 °F 10.4 °F 8.1 °F 55% 30.20 in 10.0 mi West 11.5 mph - N/A   Mostly Cloudy
11:55 AM 22.8 °F 15.5 °F 8.8 °F 55% 30.20 in 10.0 mi West 5.8 mph - N/A   Mostly Cloudy
12:15 PM 23.2 °F 11.4 °F 7.5 °F 51% 30.20 in 10.0 mi West 12.7 mph 16.1 mph N/A   Overcast
12:35 PM 22.8 °F 11.5 °F 7.5 °F 52% 30.20 in 10.0 mi WNW 11.5 mph - N/A   Overcast
12:55 PM 23.0 °F 13.1 °F 6.8 °F 50% 30.20 in 10.0 mi WNW 9.2 mph - N/A   Mostly Cloudy
1:15 PM 23.9 °F 13.5 °F 7.0 °F 49% 30.19 in 10.0 mi WNW 10.4 mph 21.9 mph N/A   Overcast
1:55 PM 24.4 °F 14.2 °F 7.0 °F 48% 30.19 in 10.0 mi WNW 10.4 mph - N/A   Overcast
2:15 PM 25.7 °F 15.7 °F 7.9 °F 47% 30.18 in 10.0 mi West 10.4 mph 17.3 mph N/A   Overcast
2:35 PM 25.7 °F 15.1 °F 7.0 °F 45% 30.19 in 10.0 mi West 11.5 mph 17.3 mph N/A   Overcast
2:55 PM 27.3 °F 16.1 °F 6.8 °F 42% 30.18 in 10.0 mi West 13.8 mph 20.7 mph N/A   Overcast
3:15 PM 25.3 °F 15.3 °F 5.9 °F 44% 30.19 in 10.0 mi WNW 10.4 mph 17.3 mph N/A   Mostly Cloudy
3:35 PM 25.3 °F 15.3 °F 4.8 °F 42% 30.18 in 10.0 mi WNW 10.4 mph - N/A   Scattered Clouds
3:55 PM 25.5 °F 16.2 °F 4.6 °F 41% 30.18 in 10.0 mi WNW 9.2 mph - N/A   Scattered Clouds
4:15 PM 26.6 °F 16.2 °F 5.7 °F 41% 30.19 in 10.0 mi West 11.5 mph 18.4 mph N/A   Scattered Clouds
4:35 PM 26.4 °F 15.5 °F 5.2 °F 40% 30.19 in 10.0 mi West 12.7 mph 18.4 mph N/A   Mostly Cloudy
4:55 PM 27.3 °F 16.6 °F 5.2 °F 39% 30.19 in 10.0 mi WNW 12.7 mph 16.1 mph N/A   Scattered Clouds
5:15 PM 27.1 °F 18.2 °F 4.8 °F 39% 30.19 in 10.0 mi WNW 9.2 mph - N/A   Scattered Clouds
5:35 PM 26.6 °F 16.2 °F 5.2 °F 40% 30.20 in 10.0 mi WNW 11.5 mph - N/A   Clear
5:55 PM 25.7 °F 17.1 °F 5.2 °F 42% 30.21 in 10.0 mi WNW 8.1 mph - N/A   Clear
6:15 PM 24.6 °F 18.8 °F 6.3 °F 46% 30.22 in 10.0 mi NW 4.6 mph - N/A   Clear
6:35 PM 23.9 °F 18.0 °F 6.3 °F 47% 30.22 in 10.0 mi NW 4.6 mph - N/A   Clear
6:55 PM 23.7 °F - 5.9 °F 47% 30.22 in 10.0 mi Calm Calm - N/A   Clear
7:15 PM 22.5 °F - 7.5 °F 53% 30.22 in 10.0 mi Calm Calm - N/A   Clear
7:35 PM 19.8 °F - 9.5 °F 64% 30.23 in 10.0 mi Calm Calm - N/A   Clear
7:55 PM 19.0 °F - 10.0 °F 68% 30.23 in 10.0 mi Calm Calm - N/A   Clear
8:15 PM 19.4 °F - 10.0 °F 67% 30.23 in 10.0 mi Calm Calm - N/A   Clear
8:35 PM 18.5 °F - 10.9 °F 72% 30.23 in 10.0 mi Calm Calm - N/A   Clear
8:55 PM 17.6 °F - 11.1 °F 76% 30.24 in 10.0 mi Calm Calm - N/A   Clear
9:15 PM 17.2 °F - 11.1 °F 77% 30.25 in 10.0 mi Calm Calm - N/A   Clear
9:35 PM 16.7 °F - 10.0 °F 75% 30.25 in 10.0 mi Calm Calm - N/A   Clear
9:55 PM 15.6 °F - 10.6 °F 80% 30.25 in 10.0 mi Calm Calm - N/A   Clear
10:15 PM 15.6 °F - 10.8 °F 81% 30.25 in 10.0 mi Calm Calm - N/A   Clear
10:35 PM 15.3 °F - 10.2 °F 80% 30.26 in 10.0 mi Calm Calm - N/A   Clear
10:55 PM 14.0 °F - 9.5 °F 82% 30.26 in 10.0 mi Calm Calm - N/A   Clear
11:15 PM 14.4 °F - 10.6 °F 85% 30.26 in 10.0 mi Calm Calm - N/A   Clear
11:35 PM 14.0 °F - 10.0 °F 84% 30.26 in 10.0 mi Calm Calm - N/A   Clear
11:55 PM 14.0 °F - 10.8 °F 87% 30.26 in 10.0 mi Calm Calm - N/A   Clear